Regional Weather Roundup
Issued by NWS

Home | Current Version | Previous Version | Text Only | Print | Product List | Glossary Off
Versions: 1 2 3 4 5 6 7 8 9 10 11 12 13 14 15 16 17 18 19 20 21 22 23 24 25 26 27 28 29 30 31 32 33 34 35 36 37 38 39 40 41 42 43 44 45 46 47 48 49 50

000
ASUS43 KLMK 062302
RWRKY
KENTUCKY REGIONAL WEATHER ROUNDUP
NATIONAL WEATHER SERVICE LOUISVILLE KY
600 PM EST SAT FEB 06 2016

NOTE "FAIR" INDICATES FEW OR NO CLOUDS BELOW 12,000 FEET
WITH NO SIGNIFICANT WEATHER AND/OR OBSTRUCTIONS TO VISIBILITY.

KYZ001>023-026-027-061>063-070>075-070000-
WESTERN AND SOUTH CENTRAL KENTUCKY

CITY           SKY/WX    TMP DP  RH WIND       PRES   REMARKS
PADUCAH        CLEAR     51  22  31 SW9       30.27R
HENDERSON      CLEAR     52  27  37 SW3       30.25S
OWENSBORO      CLEAR     50  28  42 W6        30.27R
HOPKINSVILLE   CLEAR     49  20  31 W6        30.27S
BOWLING GREEN  CLEAR     50  22  33 SW9       30.28S
GLASGOW        NOT AVBL
$$

KYZ024-025-028>034-038-045-046-053-070000-
NORTH CENTRAL KENTUCKY

CITY           SKY/WX    TMP DP  RH WIND       PRES   REMARKS
LOUISVILLE/SDF PTCLDY    48  24  39 W6        30.25S
LOUISVILLE/LOU CLEAR     49  25  39 W6        30.26S
FORT KNOX      CLEAR     47  24  39 W6        30.24S
$$

KYZ035>037-039>044-047>052-055>060-089>105-070000-
NORTHEAST KENTUCKY

CITY           SKY/WX    TMP DP  RH WIND       PRES   REMARKS
LEXINGTON      CLEAR     46  23  40 NW6       30.26R
COVINGTON      PTCLDY    43  22  43 W7        30.24S
FRANKFORT      CLEAR     47  22  37 W3        30.25S
$$

KYZ054-064>069-076>088-106>120-070000-
SOUTHEAST KENTUCKY

CITY           SKY/WX    TMP DP  RH WIND       PRES   REMARKS
JACKSON        MOCLDY    45  21  38 SW3       30.25S
LONDON         PTCLDY    44  20  38 W6        30.27S
SOMERSET       NOT AVBL
MIDDLESBORO    NOT AVBL
MONTICELLO     PTCLDY    42  23  46 VRB3      30.30S
$$




USA.gov is the U.S. government's official web portal to all federal, state and local government web resources and services.